EW7156 Weather Reports


time (UTC)temp
C
wind
direction
speed
KPH
gust
KPH
rain 1hr
cm
rain 24hr
cm
rain mn
cm
humidity
%
barometer
mb
20260510010821 16 202 3.2 4.8 0.00 0.36 0.30 63 1113.7
20260510005820 16 175 0.0 4.8 0.00 0.36 0.30 62 1113.4
20260510004819 16 157 0.0 0.0 0.00 0.36 0.30 61 1113.4
20260510003820 16 157 0.0 1.6 0.00 0.36 0.30 60 1113.4
20260510001919 17 247 0.0 0.0 0.00 0.36 0.30 58 1113.4
20260510000920 17 260 0.0 1.6 0.00 0.36 0.30 57 1113.4
20260510000018 17 111 1.6 8.0 0.00 0.36 0.30 56 1113.4
20260509235019 18 245 0.0 6.4 0.00 0.36 0.30 55 1113.0
20260509234118 18 283 0.0 6.4 0.00 0.36 0.30 54 1112.9
20260509233119 19 79 0.0 6.4 0.00 0.36 0.30 53 1113.0
20260509232218 19 294 0.0 3.2 0.00 0.36 0.30 54 1113.0
20260509231220 20 225 1.6 11.3 0.00 0.36 0.30 54 1112.6
20260509225218 20 171 4.8 11.3 0.00 0.36 0.30 55 1112.6
20260509223222 20 241 1.6 6.4 0.00 0.36 0.30 55 1112.2
20260509222320 20 167 1.6 6.4 0.00 0.36 0.30 56 1112.6
20260509221320 20 269 4.8 9.7 0.00 0.36 0.30 55 1112.6
20260509220319 20 164 1.6 6.4 0.00 0.36 0.30 55 1113.0
20260509215318 20 253 6.4 12.9 0.00 0.36 0.30 56 1113.0
20260509214320 20 197 0.0 6.4 0.00 0.36 0.30 57 1112.6
20260509213419 20 167 3.2 8.0 0.00 0.36 0.30 57 1113.0
20260509212421 20 275 4.8 12.9 0.00 0.36 0.30 57 1113.0
20260509211421 21 221 3.2 12.9 0.00 0.36 0.30 58 1113.0
20260509210420 20 251 1.6 6.4 0.00 0.36 0.30 57 1113.0
20260509205420 20 308 4.8 9.7 0.00 0.36 0.30 57 1113.3
20260509204420 20 228 1.6 6.4 0.00 0.36 0.30 58 1113.4
20260509203420 20 209 1.6 6.4 0.00 0.36 0.30 60 1113.4
20260509201519 19 256 8.0 12.9 0.00 0.36 0.30 60 1113.7
20260509200520 19 308 1.6 8.0 0.00 0.36 0.30 64 1113.7
20260509195520 19 217 1.6 4.8 0.00 0.36 0.30 65 1113.7
20260509194519 18 329 4.8 12.9 0.00 0.36 0.30 63 1114.1
20260509193520 18 313 1.6 6.4 0.00 0.36 0.30 65 1114.1
20260509192521 18 237 3.2 9.7 0.00 0.36 0.30 68 1114.1
20260509191522 18 215 1.6 9.7 0.00 0.36 0.30 69 1114.1
20260509190618 17 239 3.2 8.0 0.00 0.36 0.30 70 1114.5
20260509184620 17 247 3.2 6.4 0.00 0.36 0.30 74 1114.8
20260509183619 16 337 0.0 0.0 0.00 0.36 0.30 76 1114.8
20260509182621 16 138 0.0 6.4 0.00 0.36 0.30 78 1114.8
20260509180719 15 244 0.0 4.8 0.00 0.36 0.30 79 1115.2
20260509175720 15 268 3.2 9.7 0.00 0.36 0.30 80 1115.2
20260509174721 15 260 3.2 12.9 0.00 0.36 0.30 82 1115.2
20260509173720 15 343 0.0 3.2 0.00 0.36 0.30 84 1115.2
20260509172818 15 273 1.6 8.0 0.00 0.36 0.30 85 1115.2
20260509171820 15 214 0.0 3.2 0.00 0.36 0.30 86 1114.8
20260509170918 15 243 1.6 9.7 0.00 0.36 0.30 88 1114.8
20260509165919 15 270 0.0 4.8 0.00 0.36 0.30 90 1114.8
20260509164921 15 292 0.0 4.8 0.03 0.36 0.30 93 1114.8
20260509164019 15 141 1.6 6.4 0.03 0.36 0.30 92 1114.5
20260509163020 14 267 4.8 8.0 0.03 0.36 0.30 93 1114.5
20260509162019 13 191 0.0 4.8 0.03 0.36 0.30 94 1114.8
20260509161118 13 219 1.6 6.4 0.03 0.36 0.30 95 1114.5
20260509160121 12 265 1.6 6.4 0.03 0.36 0.30 95 1114.5
20260509155219 12 210 0.0 3.2 0.00 0.33 0.28 95 1114.5
20260509153319 12 241 0.0 4.8 0.03 0.33 0.28 95 1114.5
20260509152321 12 250 0.0 0.0 0.03 0.33 0.28 95 1114.5
20260509151418 12 310 0.0 3.2 0.03 0.33 0.28 95 1114.5
20260509150419 12 247 0.0 0.0 0.03 0.33 0.28 95 1114.5
20260509145422 12 185 0.0 1.6 0.03 0.33 0.28 95 1114.5
20260509144518 11 247 0.0 3.2 0.00 0.30 0.25 94 1114.5
20260509143521 11 197 0.0 3.2 0.00 0.30 0.25 95 1114.1
20260509142520 11 210 0.0 4.8 0.00 0.30 0.25 95 1114.1
20260509141619 11 170 0.0 6.4 0.03 0.30 0.25 95 1114.5
20260509140718 11 170 0.0 6.4 0.03 0.30 0.25 95 1114.5
20260509135720 11 180 1.6 6.4 0.05 0.30 0.25 95 1114.5
20260509135622 11 180 0.0 0.0 0.05 0.30 0.25 95 1114.5
20260509134718 11 241 1.6 4.8 0.05 0.30 0.25 95 1114.5
20260509132819 11 163 0.0 6.4 0.05 0.30 0.25 94 1114.5
20260509131820 11 203 0.0 3.2 0.05 0.28 0.23 94 1114.8
20260509125919 11 159 0.0 3.2 0.05 0.25 0.20 94 1114.8
20260509124920 11 202 0.0 3.2 0.08 0.25 0.20 94 1114.8
20260509123920 11 164 1.6 4.8 0.08 0.25 0.20 94 1114.8
20260509121919 11 202 0.0 3.2 0.08 0.23 0.18 94 1114.8
20260509120920 10 182 1.6 4.8 0.10 0.23 0.15 93 1114.8
20260509115920 10 175 0.0 4.8 0.10 0.20 0.15 93 1114.8
20260509115018 10 116 1.6 6.4 0.08 0.18 0.13 93 1114.9
20260509114018 10 198 1.6 4.8 0.08 0.18 0.13 93 1114.5
20260509113018 10 235 0.0 3.2 0.05 0.15 0.10 92 1114.5
20260509112019 11 202 0.0 3.2 0.05 0.15 0.10 92 1114.5
20260509111018 11 159 1.6 4.8 0.03 0.13 0.08 92 1114.5
20260509110020 11 240 1.6 6.4 0.00 0.10 0.05 92 1114.5
20260509104019 10 94 0.0 1.6 0.03 0.10 0.05 92 1114.1
20260509103118 10 152 1.6 4.8 0.03 0.10 0.05 92 1114.1
20260509101120 10 202 1.6 6.4 0.03 0.10 0.05 92 1114.5
20260509100120 10 209 1.6 4.8 0.03 0.10 0.05 92 1114.5
20260509095219 10 153 1.6 6.4 0.03 0.10 0.05 92 1114.5
20260509094221 10 162 1.6 4.8 0.00 0.08 0.03 92 1114.5
20260509093220 10 171 1.6 8.0 0.00 0.08 0.03 92 1114.5
20260509091320 10 172 1.6 4.8 0.00 0.08 0.03 92 1114.8
20260509090320 10 147 0.0 4.8 0.00 0.08 0.03 93 1114.8
20260509085419 10 186 1.6 4.8 0.00 0.08 0.03 93 1114.8
20260509084419 10 189 0.0 4.8 0.00 0.08 0.03 93 1115.2
20260509082418 10 157 0.0 1.6 0.00 0.08 0.03 93 1115.2
20260509081418 10 315 0.0 0.0 0.00 0.08 0.03 93 1115.2
20260509075519 10 315 0.0 0.0 0.00 0.08 0.03 93 1114.8
20260509074519 10 315 0.0 0.0 0.00 0.08 0.03 93 1114.8
20260509073519 10 315 0.0 0.0 0.00 0.08 0.03 92 1114.8
20260509072519 10 112 0.0 0.0 0.00 0.08 0.03 91 1114.8
20260509071520 10 112 0.0 0.0 0.00 0.08 0.03 92 1114.5
20260509070519 10 112 0.0 0.0 0.00 0.08 0.03 92 1114.5
20260509065519 10 157 0.0 1.6 0.00 0.08 0.03 92 1114.5
20260509064520 10 167 0.0 3.2 0.00 0.08 0.03 92 1114.8
20260509063519 10 133 0.0 3.2 0.00 0.08 0.03 91 1114.7
20260509062618 10 146 0.0 3.2 0.00 0.08 0.03 93 1114.8
20260509061618 10 149 0.0 4.8 0.00 0.08 0.03 92 1115.2
20260509054619 10 112 0.0 0.0 0.00 0.08 0.03 92 1115.2
20260509052719 10 112 0.0 0.0 0.00 0.08 0.03 92 1115.6
20260509051718 10 112 0.0 0.0 0.03 0.08 0.03 92 1116.0
20260509050721 10 112 0.0 0.0 0.03 0.08 0.03 92 1116.0
20260509045720 10 112 0.0 0.0 0.03 0.08 0.03 91 1116.0
20260509044719 10 112 0.0 0.0 0.03 0.08 0.03 91 1116.0
20260509043720 10 112 0.0 0.0 0.03 0.08 0.03 91 1116.0
20260509042719 10 112 0.0 0.0 0.03 0.08 0.03 91 1116.0
20260509041720 10 112 0.0 1.6 0.00 0.05 0.00 91 1116.4
20260509040818 10 112 0.0 0.0 0.00 0.05 0.00 90 1116.4
20260509035914 10 90 0.0 0.0 0.00 0.05 0.05 90 1116.8
20260509035014 10 90 0.0 0.0 0.00 0.05 0.05 90 1116.8
20260509033018 11 112 0.0 0.0 0.03 0.05 0.05 89 1117.1
20260509031016 11 337 0.0 0.0 0.03 0.05 0.05 87 1117.4
20260509025015 11 337 0.0 0.0 0.05 0.05 0.05 87 1117.5
20260509024017 11 337 0.0 0.0 0.05 0.05 0.05 85 1117.9
20260509023018 11 112 0.0 0.0 0.03 0.03 0.03 84 1117.9
20260509022014 11 112 0.0 0.0 0.03 0.03 0.03 83 1117.9
20260509015117 11 112 0.0 0.0 0.00 0.00 0.00 79 1117.5
20260509014216 11 112 0.0 0.0 0.00 0.00 0.00 79 1117.1
20260509013216 11 112 1.6 4.8 0.00 0.00 0.00 78 1117.1
20260509012217 11 112 0.0 0.0 0.00 0.00 0.00 77 1117.1